1500238801.23,38427,16.94,74404.0,-0.71,-25.65,-25.29,0,*64
1500238802.45,38428,16.94,74408.0,-0.73,-25.71,-25.23,0,*66
1500238803.71,38429,16.94,74408.0,-0.71,-25.71,-25.23,0,*65
1500238804.96,38430,16.94,74408.8,-0.73,-25.97,-25.55,0,*66
1500238806.19,38431,16.94,74410.5,-0.73,-26.07,-25.55,0,*6D
1500238807.42,38432,16.94,74406.8,-0.73,-26.07,-25.55,0,*6E
1500238808.64,38433,16.94,74408.5,-0.73,-25.75,-25.23,0,*68
1500238809.92,38434,16.94,74410.8,-0.71,-25.55,-25.03,0,*6D
1500238811.16,38435,16.94,74410.0,-0.73,-25.45,-24.87,0,*62
1500238812.39,38436,16.94,74414.8,-0.69,-25.39,-24.87,0,*61
1500238813.61,38437,16.94,74412.0,-0.69,-25.55,-24.97,0,*6B
1500238814.85,38438,16.94,74410.5,-0.69,-25.55,-25.13,0,*69
1500238816.08,38439,16.94,74408.3,-0.69,-25.71,-25.13,0,*6E
1500238817.31,38440,16.94,74408.3,-0.69,-25.55,-24.97,0,*6B
1500238818.53,38441,16.94,74408.8,-0.69,-25.55,-24.97,0,*6A
1500238819.79,38442,16.94,74410.5,-0.69,-25.55,-24.87,0,*68
1500238821.04,38443,16.94,74410.0,-0.67,-25.75,-25.13,0,*69
1500238822.24,38444,16.94,74412.0,-0.69,-25.87,-25.13,0,*6D
1500238823.5,38445,16.94,74412.3,-0.63,-25.61,-25.03,0,*6F
1500238824.72,38446,16.94,74410.8,-0.67,-25.91,-25.35,0,*62
1500238825.97,38447,16.94,74410.8,-0.67,-26.07,-25.45,0,*68
1500238827.2,38448,16.94,74408.5,-0.67,-26.07,-25.35,0,*60
1500238828.45,38449,16.94,74410.8,-0.67,-26.07,-25.45,0,*66
1500238829.66,38450,16.94,74414.0,-0.69,-26.03,-25.39,0,*6F
1500238830.89,38451,16.94,74414.3,-0.67,-25.91,-25.19,0,*6A
1500238832.12,38452,16.94,74410.3,-0.67,-25.49,-24.77,0,*65
1500238833.36,38453,16.94,74414.0,-0.67,-25.61,-24.83,0,*65
1500238834.62,38454,16.94,74414.0,-0.67,-25.49,-24.83,0,*68
1500238835.85,38455,16.94,74412.0,-0.61,-25.55,-24.77,0,*69
1500238837.1,38456,16.94,74414.0,-0.59,-25.49,-24.83,0,*67
1500238838.36,38457,16.94,74408.8,-0.63,-25.71,-24.93,0,*65
1500238839.58,38458,16.94,74412.3,-0.61,-25.87,-25.03,0,*69
1500238840.83,38459,16.94,74410.8,-0.63,-25.75,-24.93,0,*6F
1500238842.09,38460,16.94,74414.5,-0.61,-25.71,-24.71,0,*6F
1500238843.35,38461,16.94,74410.0,-0.61,-25.71,-24.87,0,*67
1500238844.62,38462,16.94,74408.8,-0.59,-25.81,-24.83,0,*64
1500238845.83,38463,16.94,74408.8,-0.61,-26.03,-25.13,0,*6F
1500238847.03,38464,16.94,74412.0,-0.61,-25.91,-24.93,0,*69
1500238848.28,38465,16.94,74414.5,-0.61,-25.71,-24.71,0,*6A
1500238849.5,38466,16.94,74410.5,-0.61,-25.23,-24.41,0,*6D
1500238850.72,38467,16.94,74414.3,-0.57,-25.35,-24.41,0,*6E
1500238851.95,38468,16.94,74416.8,-0.59,-25.09,-24.35,0,*63
1500238853.17,38469,16.94,74408.3,-0.57,-25.23,-24.41,0,*67
1500238854.36,38470,16.94,74414.5,-0.57,-25.35,-24.35,0,*6B
1500238855.58,38471,16.94,74412.5,-0.57,-25.23,-24.41,0,*6E
1500238856.77,38472,16.94,74414.3,-0.57,-25.39,-24.57,0,*61
1500238857.99,38473,16.94,74410.0,-0.55,-25.35,-24.47,0,*6F
1500238859.26,38474,16.94,74412.8,-0.55,-25.03,-23.99,0,*69
1500238860.48,38475,16.94,74412.5,-0.53,-24.97,-23.99,0,*62
1500238861.7,38476,16.94,74410.0,-0.53,-25.13,-24.21,0,*68
1500238862.95,38477,16.94,74410.5,-0.51,-25.23,-24.15,0,*6F
1500238864.2,38478,16.94,74414.5,-0.51,-25.13,-24.25,0,*60
1500238865.44,38479,16.94,74414.8,-0.51,-25.09,-24.15,0,*69
1500238866.71,38480,16.94,74412.0,-0.51,-25.29,-24.15,0,*6D
1500238867.96,38481,16.94,74410.8,-0.51,-25.29,-24.31,0,*6A
1500238869.18,38482,16.94,74414.3,-0.49,-25.45,-24.47,0,*6B
1500238870.41,38483,16.94,74412.0,-0.49,-25.55,-24.57,0,*6A
1500238871.63,38484,16.94,74410.3,-0.49,-25.45,-24.57,0,*6C
1500238872.9,38485,16.94,74408.5,-0.49,-25.71,-24.71,0,*6E
1500238874.1,38486,16.94,74410.5,-0.49,-25.87,-24.93,0,*68
1500238875.37,38487,16.94,74410.0,-0.47,-25.71,-24.67,0,*65
1500238876.63,38488,16.94,74414.8,-0.49,-25.75,-24.87,0,*6E
1500238877.86,38489,16.94,74410.3,-0.49,-25.75,-24.93,0,*6A
1500238879.14,38490,16.94,74412.8,-0.47,-25.71,-24.71,0,*64
1500238880.41,38491,16.94,74414.3,-0.47,-25.81,-24.71,0,*6A
1500238881.66,38492,16.94,74412.0,-0.47,-25.87,-24.87,0,*66
1500238882.94,38493,16.94,74412.8,-0.47,-25.71,-24.83,0,*6A
1500238884.19,38494,16.94,74410.8,-0.47,-25.87,-24.83,0,*64
1500238885.44,38495,16.94,74412.0,-0.47,-25.71,-24.57,0,*65
1500238886.72,38496,16.94,74416.0,-0.47,-25.55,-24.25,0,*65
1500238887.97,38497,16.94,74412.5,-0.47,-25.23,-24.21,0,*61
1500238889.22,38498,16.94,74410.8,-0.47,-25.39,-24.25,0,*61
1500238890.42,38499,16.94,74408.3,-0.45,-25.65,-24.51,0,*68
1500238891.62,38500,16.94,74412.5,-0.45,-25.65,-24.57,0,*6F
1500238892.84,38501,16.94,74410.8,-0.45,-25.65,-24.41,0,*69
1500238894.1,38502,16.94,74412.3,-0.45,-25.55,-24.25,0,*6B
1500238895.32,38503,16.94,74410.0,-0.45,-25.65,-24.41,0,*6B
1500238896.55,38504,16.94,74412.3,-0.45,-25.65,-24.41,0,*6C
1500238897.78,38505,16.94,74410.3,-0.45,-25.71,-24.51,0,*69
1500238899.0,38506,16.94,74414.0,-0.45,-25.65,-24.41,0,*6E
1500238900.23,38507,16.94,74410.8,-0.43,-25.87,-24.77,0,*60
1500238901.45,38508,16.94,74414.0,-0.43,-25.87,-24.77,0,*6F
1500238902.72,38509,16.94,74410.3,-0.43,-25.81,-24.67,0,*69
1500238903.95,38510,16.94,74410.3,-0.43,-26.03,-24.97,0,*67
1500238905.23,38511,16.94,74412.8,-0.43,-26.17,-25.03,0,*6F
1500238906.49,38512,16.94,74410.5,-0.43,-26.03,-25.03,0,*69
1500238907.76,38513,16.94,74412.3,-0.43,-26.13,-25.03,0,*69
1500238908.98,38514,16.94,74410.5,-0.45,-25.87,-24.67,0,*65
1500238910.23,38515,16.94,74408.3,-0.45,-25.81,-24.67,0,*62
1500238911.47,38516,16.94,74410.3,-0.45,-25.81,-24.67,0,*61
1500238912.7,38517,16.94,74410.5,-0.45,-25.91,-24.83,0,*6B
1500238913.92,38518,16.94,74410.8,-0.45,-25.87,-24.71,0,*6E
1500238915.15,38519,16.94,74408.5,-0.45,-26.07,-24.87,0,*6D
1500238916.39,38520,16.94,74412.5,-0.45,-26.03,-24.71,0,*6A
1500238917.64,38521,16.94,74410.3,-0.47,-26.03,-24.87,0,*60
1500238918.87,38522,16.94,74412.8,-0.45,-26.07,-24.87,0,*65
1500238920.12,38523,16.94,74412.3,-0.43,-25.97,-24.77,0,*67
1500238921.35,38524,16.94,74408.0,-0.45,-25.87,-24.71,0,*61
1500238922.58,38525,16.94,74410.8,-0.45,-25.71,-24.57,0,*6D
1500238923.8,38526,16.94,74410.3,-0.45,-25.65,-24.41,0,*6C
1500238925.03,38527,16.94,74410.3,-0.45,-25.81,-24.57,0,*60
1500238926.25,38528,16.94,74412.5,-0.45,-25.81,-24.51,0,*69
1500238927.45,38529,16.94,74408.8,-0.45,-25.87,-24.57,0,*68
1500238928.68,38530,16.94,74408.0,-0.45,-25.87,-24.71,0,*64
1500238929.91,38531,16.94,74412.3,-0.45,-25.91,-24.71,0,*62
1500238931.14,38532,16.94,74408.3,-0.45,-26.03,-24.83,0,*64
1500238932.36,38533,16.94,74410.5,-0.45,-25.91,-24.71,0,*60
1500238933.6,38534,16.94,74410.8,-0.45,-26.03,-24.71,0,*6F
1500238934.83,38535,16.94,74410.5,-0.45,-25.91,-24.71,0,*66
1500238936.05,38536,16.94,74410.8,-0.45,-25.91,-24.71,0,*65
1500238937.28,38537,16.94,74410.5,-0.45,-26.03,-24.83,0,*61
1500238938.51,38538,16.94,74408.5,-0.45,-25.91,-24.71,0,*6B
1500238939.76,38539,16.94,74410.5,-0.47,-25.87,-24.67,0,*68
1500238940.98,38540,16.94,74410.0,-0.45,-25.91,-24.83,0,*69
1500238942.21,38541,16.94,74412.0,-0.45,-26.03,-24.83,0,*60
1500238943.41,38542,16.94,74408.8,-0.45,-25.87,-24.57,0,*65
1500238944.64,38543,16.94,74408.0,-0.45,-25.71,-24.57,0,*6D
1500238945.87,38544,16.94,74410.0,-0.45,-25.71,-24.35,0,*6E
1500238947.09,38545,16.94,74410.5,-0.45,-25.71,-24.35,0,*6F
1500238948.34,38546,16.94,74404.8,-0.47,-25.71,-24.35,0,*6E
1500238949.62,38547,16.94,74406.8,-0.47,-25.71,-24.41,0,*6C
1500238950.81,38548,16.94,74408.3,-0.45,-25.65,-24.35,0,*67
1500238952.09,38549,16.94,74404.0,-0.47,-25.55,-24.25,0,*66
1500238953.31,38550,16.94,74408.0,-0.45,-25.39,-24.11,0,*61
1500238954.54,38551,16.94,74410.0,-0.45,-25.39,-24.21,0,*63
1500238955.74,38552,16.94,74410.3,-0.45,-25.23,-24.05,0,*6D
1500238956.98,38553,16.94,74408.5,-0.47,-25.09,-23.95,0,*68
1500238958.19,38554,16.94,74410.8,-0.45,-25.23,-23.95,0,*65
1500238959.39,38555,16.94,74408.3,-0.45,-25.09,-23.89,0,*61
1500238960.59,38556,16.94,74406.5,-0.45,-25.09,-23.75,0,*61
1500238961.84,38557,16.94,74408.8,-0.43,-25.03,-23.75,0,*6C
1500238963.06,38558,16.94,74410.0,-0.43,-25.13,-23.75,0,*62
1500238964.31,38559,16.94,74410.0,-0.43,-24.87,-23.75,0,*6F
1500238965.58,38560,16.94,74410.8,-0.39,-24.83,-23.65,0,*6D
1500238966.81,38561,16.94,74408.5,-0.43,-24.97,-23.75,0,*65
1500238968.08,38562,16.94,74408.3,-0.39,-24.83,-23.69,0,*63
1500238969.32,38563,16.94,74408.8,-0.39,-25.23,-23.95,0,*6A
1500238970.56,38564,16.94,74406.8,-0.39,-25.23,-23.95,0,*6D
1500238971.78,38565,16.94,74408.3,-0.43,-25.13,-23.89,0,*6F
1500238973.0,38566,16.94,74406.3,-0.43,-25.13,-23.89,0,*6C
1500238974.24,38567,16.94,74408.3,-0.39,-25.23,-23.95,0,*6E
1500238975.46,38568,16.94,74410.8,-0.43,-25.19,-24.05,0,*6B
1500238976.7,38569,16.94,74408.5,-0.39,-25.23,-23.95,0,*60
1500238977.95,38570,16.94,74406.5,-0.39,-25.13,-23.99,0,*67
1500238979.19,38571,16.94,74410.8,-0.43,-25.19,-23.99,0,*61
1500238980.44,38572,16.94,74408.8,-0.39,-24.97,-23.85,0,*65
1500238981.68,38573,16.94,74406.8,-0.39,-24.97,-23.69,0,*66
1500238982.96,38574,16.94,74408.5,-0.39,-24.83,-23.65,0,*68
1500238984.19,38575,16.94,74408.5,-0.39,-24.77,-23.59,0,*6D
1500238985.46,38576,16.94,74410.8,-0.39,-24.83,-23.69,0,*66
1500238986.73,38577,16.94,74406.0,-0.43,-24.87,-23.65,0,*62
1500238987.95,38578,16.94,74406.8,-0.43,-24.97,-23.75,0,*6D
1500238989.17,38579,16.94,74406.5,-0.39,-24.97,-23.79,0,*6D
1500238990.37,38580,16.94,74402.5,-0.37,-24.97,-23.79,0,*65
1500238991.61,38581,16.94,74404.5,-0.39,-24.93,-23.69,0,*6F
1500238992.84,38582,16.94,74406.0,-0.39,-24.93,-23.69,0,*6C
1500238994.12,38583,16.94,74404.0,-0.43,-24.83,-23.65,0,*6D
1500238995.39,38584,16.94,74410.0,-0.43,-24.87,-23.69,0,*62
1500238996.63,38585,16.94,74406.3,-0.43,-24.77,-23.65,0,*60
1500238997.9,38586,16.94,74408.3,-0.43,-24.67,-23.33,0,*61
1500238999.16,38587,16.94,74406.3,-0.39,-24.57,-23.33,0,*6E
1500239000.44,38588,16.94,74404.0,-0.39,-24.41,-23.19,0,*6E
1500239001.7,38589,16.94,74406.3,-0.39,-24.47,-23.29,0,*6A
1500239002.95,38590,16.94,74402.5,-0.39,-24.57,-23.33,0,*68
1500239004.2,38591,16.94,74406.8,-0.39,-24.61,-23.33,0,*6C
1500239005.45,38592,16.94,74404.3,-0.39,-24.57,-23.33,0,*6A
1500239006.71,38593,16.94,74406.5,-0.39,-24.47,-23.29,0,*61
1500239007.94,38594,16.94,74404.8,-0.39,-24.31,-23.13,0,*6E
1500239009.22,38595,16.94,74406.0,-0.39,-24.15,-23.03,0,*68
1500239010.47,38596,16.94,74406.8,-0.39,-23.95,-22.87,0,*69
1500239011.7,38597,16.94,74406.3,-0.39,-23.79,-22.63,0,*60
1500239012.93,38598,16.94,74408.0,-0.39,-23.79,-22.63,0,*6F
1500239014.19,38599,16.94,74406.5,-0.39,-23.59,-22.31,0,*6B
1500239015.41,38600,16.94,74408.3,-0.35,-23.39,-22.11,0,*60
1500239016.67,38601,16.94,74406.5,-0.35,-23.43,-22.31,0,*6E
1500239017.9,38602,16.94,74408.3,-0.35,-23.59,-22.57,0,*66
1500239019.16,38603,16.94,74404.8,-0.35,-23.59,-22.31,0,*67
1500239020.42,38604,16.94,74406.3,-0.33,-23.53,-22.31,0,*6C
1500239021.63,38605,16.94,74408.8,-0.33,-23.75,-22.63,0,*6E
1500239022.84,38606,16.94,74406.8,-0.33,-23.79,-22.83,0,*6F
1500239024.04,38607,16.94,74408.5,-0.33,-23.75,-22.67,0,*68
1500239025.27,38608,16.94,74410.8,-0.33,-23.65,-22.57,0,*65
1500239026.5,38609,16.94,74410.0,-0.33,-23.65,-22.63,0,*63
1500239027.73,38610,16.94,74406.0,-0.33,-23.95,-22.83,0,*6A
1500239028.96,38611,16.94,74404.8,-0.33,-23.95,-22.83,0,*6B
1500239030.17,38612,16.94,74404.5,-0.33,-23.89,-22.83,0,*65
1500239031.45,38613,16.94,74406.0,-0.31,-23.85,-22.77,0,*61
1500239032.65,38614,16.94,74404.8,-0.33,-23.89,-22.83,0,*63
1500239033.86,38615,16.94,74404.8,-0.33,-23.79,-22.63,0,*63
1500239035.09,38616,16.94,74404.0,-0.33,-23.65,-22.57,0,*6A
1500239036.34,38617,16.94,74408.0,-0.31,-23.53,-22.57,0,*6C
1500239037.55,38618,16.94,74404.5,-0.33,-23.43,-22.27,0,*67
1500239038.8,38619,16.94,74404.0,-0.31,-23.49,-22.41,0,*6E
1500239040.05,38620,16.94,74404.8,-0.31,-23.53,-22.57,0,*68
1500239041.31,38621,16.94,74408.3,-0.31,-23.53,-22.57,0,*69
1500239042.54,38622,16.94,74410.3,-0.33,-23.59,-22.47,0,*63
1500239043.83,38623,16.94,74408.3,-0.31,-23.49,-22.47,0,*61
1500239045.03,38624,16.94,74410.5,-0.33,-23.39,-22.27,0,*65
1500239046.25,38625,16.94,74408.0,-0.31,-23.39,-22.27,0,*66
1500239047.47,38626,16.94,74410.5,-0.31,-23.39,-22.37,0,*64
1500239048.69,38627,16.94,74408.5,-0.31,-23.39,-22.37,0,*65
1500239049.94,38628,16.94,74404.5,-0.31,-23.23,-22.27,0,*60
1500239051.14,38629,16.94,74406.0,-0.33,-23.39,-22.27,0,*68
1500239052.41,38630,16.94,74408.0,-0.31,-23.23,-22.21,0,*6F
1500239053.66,38631,16.94,74408.3,-0.31,-23.23,-22.27,0,*68
1500239054.91,38632,16.94,74408.3,-0.31,-23.19,-22.11,0,*67
1500239056.16,38633,16.94,74404.8,-0.31,-23.23,-22.37,0,*6B
1500239057.38,38634,16.94,74402.0,-0.31,-23.39,-22.41,0,*66
1500239058.63,38635,16.94,74404.5,-0.31,-23.49,-22.53,0,*63
1500239059.88,38636,16.94,74402.0,-0.31,-23.53,-22.53,0,*6B
1500239061.11,38637,16.94,74406.0,-0.31,-23.59,-22.57,0,*64
1500239062.37,38638,16.94,74404.3,-0.31,-23.53,-22.53,0,*65
1500239063.65,38639,16.94,74406.5,-0.31,-23.19,-22.21,0,*6F
1500239064.85,38640,16.94,74406.3,-0.33,-23.43,-22.41,0,*6A
1500239066.11,38641,16.94,74410.5,-0.33,-23.53,-22.47,0,*6C
1500239067.33,38642,16.94,74408.0,-0.31,-23.39,-22.37,0,*66
1500239068.52,38643,16.94,74404.0,-0.33,-23.39,-22.41,0,*64
1500239069.78,38644,16.94,74410.5,-0.31,-23.09,-22.21,0,*64
1500239070.98,38645,16.94,74412.0,-0.33,-23.13,-22.27,0,*6A
1500239072.22,38646,16.94,74406.0,-0.33,-23.13,-22.17,0,*6A
1500239073.49,38647,16.94,74410.3,-0.31,-23.23,-22.21,0,*6F
1500239074.69,38648,16.94,74412.5,-0.33,-23.13,-22.27,0,*67
1500239075.9,38649,16.94,74412.8,-0.33,-23.09,-22.27,0,*6D
1500239077.11,38650,16.94,74410.3,-0.33,-22.97,-22.11,0,*66
1500239078.33,38651,16.88,74406.3,-0.33,-22.83,-21.97,0,*6F
1500239079.57,38652,16.94,74410.3,-0.33,-22.67,-21.87,0,*67
1500239080.82,38653,16.94,74408.3,-0.31,-22.73,-21.93,0,*64
1500239082.05,38654,16.94,74408.5,-0.33,-22.77,-22.03,0,*6F
1500239083.26,38655,16.94,74408.0,-0.33,-22.93,-22.03,0,*64
1500239084.51,38656,16.94,74408.3,-0.31,-23.03,-22.11,0,*6E
1500239085.78,38657,16.94,74410.3,-0.31,-22.73,-21.83,0,*61
1500239087.02,38658,16.94,74408.0,-0.33,-22.67,-21.87,0,*6D
1500239088.27,38659,16.94,74408.3,-0.33,-22.77,-21.97,0,*6C
1500239089.5,38660,16.94,74408.3,-0.33,-22.63,-21.83,0,*66
1500239090.72,38661,16.94,74410.5,-0.33,-22.63,-21.83,0,*67
1500239091.95,38662,16.94,74408.3,-0.33,-22.63,-21.83,0,*64
1500239093.18,38663,16.94,74408.0,-0.33,-22.57,-21.83,0,*62
1500239094.39,38664,16.94,74408.0,-0.33,-22.27,-21.47,0,*6A
1500239095.64,38665,16.94,74408.3,-0.33,-22.31,-21.53,0,*69
1500239096.89,38666,16.94,74408.0,-0.33,-22.47,-21.57,0,*6F
1500239098.15,38667,16.94,74410.3,-0.33,-22.47,-21.57,0,*6E
1500239099.39,38668,16.94,74408.5,-0.35,-22.41,-21.57,0,*61
1500239100.65,38669,16.94,74406.5,-0.33,-22.47,-21.53,0,*64
1500239101.93,38670,16.94,74408.8,-0.31,-22.21,-21.33,0,*68
1500239103.16,38671,16.94,74408.5,-0.33,-21.97,-21.17,0,*63
1500239104.39,38672,16.94,74408.8,-0.33,-21.97,-21.17,0,*60
1500239105.63,38673,16.94,74410.3,-0.33,-21.67,-20.89,0,*68
1500239106.88,38674,16.88,74408.3,-0.33,-21.67,-20.79,0,*60
1500239108.14,38675,16.94,74408.3,-0.31,-21.53,-20.69,0,*65
1500239109.4,38676,16.88,74408.8,-0.31,-21.53,-20.73,0,*6D
1500239110.65,38677,16.94,74410.0,-0.29,-21.57,-20.83,0,*6E
1500239111.86,38678,16.94,74412.3,-0.29,-21.63,-20.93,0,*67
1500239113.09,38679,16.94,74414.0,-0.29,-21.63,-20.99,0,*6C
1500239114.3,38680,16.88,74406.5,-0.27,-22.07,-21.13,0,*66
1500239115.56,38681,16.94,74408.0,-0.27,-21.87,-21.13,0,*6C
1500239116.79,38682,16.94,74410.8,-0.29,-21.73,-20.99,0,*69
1500239118.04,38683,16.88,74406.0,-0.27,-21.77,-20.99,0,*62
1500239119.25,38684,16.94,74408.8,-0.29,-21.93,-21.13,0,*62
1500239120.47,38685,16.94,74410.8,-0.27,-21.77,-21.09,0,*6C
1500239121.72,38686,16.94,74414.8,-0.27,-21.73,-20.99,0,*63
1500239122.97,38687,16.88,74406.8,-0.27,-21.47,-20.79,0,*6B
1500239124.21,38688,16.88,74404.8,-0.27,-21.43,-20.79,0,*60
1500239125.46,38689,16.94,74410.5,-0.27,-21.47,-20.83,0,*60
1500239126.71,38690,16.94,74410.0,-0.25,-21.53,-20.89,0,*65
1500239127.94,38691,16.88,74406.3,-0.25,-21.53,-20.93,0,*6F
1500239129.19,38692,16.94,74410.0,-0.25,-21.53,-20.89,0,*67
1500239130.45,38693,16.94,74406.0,-0.25,-21.67,-21.03,0,*62
1500239131.7,38694,16.88,74406.8,-0.25,-21.57,-21.03,0,*66
1500239132.93,38695,16.94,74408.3,-0.25,-21.57,-20.93,0,*6F
1500239134.13,38696,16.94,74408.3,-0.25,-21.73,-21.09,0,*68
1500239135.41,38697,16.94,74408.5,-0.23,-21.67,-21.03,0,*60
1500239136.63,38698,16.88,74404.3,-0.27,-21.77,-21.09,0,*60
1500239137.85,38699,16.94,74406.5,-0.27,-21.73,-21.13,0,*6E
1500239139.08,38700,16.94,74410.5,-0.27,-21.73,-21.13,0,*6F
1500239140.32,38701,16.94,74410.5,-0.27,-21.57,-21.09,0,*63
1500239141.56,38702,16.94,74410.5,-0.27,-21.57,-21.09,0,*60
1500239142.84,38703,16.94,74410.8,-0.23,-21.53,-21.03,0,*6B
1500239144.11,38704,16.94,74408.8,-0.25,-21.53,-21.03,0,*6A
1500239145.34,38705,16.94,74406.5,-0.25,-21.53,-20.93,0,*63
1500239146.62,38706,16.94,74406.5,-0.27,-21.57,-20.99,0,*6C
1500239147.87,38707,16.94,74410.5,-0.27,-21.39,-20.83,0,*6E
1500239149.11,38708,16.94,74410.5,-0.27,-21.47,-20.79,0,*6D
1500239150.36,38709,16.94,74412.3,-0.27,-21.27,-20.69,0,*6B
1500239151.6,38710,16.94,74408.3,-0.25,-21.23,-20.63,0,*6F
1500239152.87,38711,16.88,74406.5,-0.23,-21.33,-20.79,0,*62
1500239154.12,38712,16.94,74410.5,-0.23,-21.33,-20.73,0,*6B
1500239155.36,38713,16.94,74410.5,-0.25,-21.23,-20.73,0,*6D
1500239156.63,38714,16.94,74408.0,-0.23,-21.33,-20.79,0,*67
1500239157.88,38715,16.88,74404.3,-0.25,-21.23,-20.79,0,*61
1500239159.11,38716,16.88,74408.3,-0.23,-21.17,-20.63,0,*68
1500239160.31,38717,16.94,74410.5,-0.25,-21.17,-20.73,0,*6E
1500239161.57,38718,16.94,74410.0,-0.25,-21.23,-20.79,0,*6C
1500239162.82,38719,16.88,74404.5,-0.23,-21.23,-20.73,0,*61
1500239164.08,38720,16.94,74408.5,-0.23,-21.23,-20.73,0,*6B
1500239165.35,38721,16.94,74412.8,-0.23,-21.33,-20.79,0,*61
1500239166.57,38722,16.94,74408.5,-0.23,-21.09,-20.73,0,*61
1500239167.81,38723,16.94,74408.5,-0.23,-21.09,-20.79,0,*6A
1500239169.07,38724,16.94,74408.5,-0.23,-21.33,-20.89,0,*6B
1500239170.27,38725,16.88,74406.0,-0.25,-21.39,-20.93,0,*6D
1500239171.48,38726,16.94,74408.8,-0.25,-21.43,-20.93,0,*63
1500239172.7,38727,16.94,74410.8,-0.21,-21.39,-20.99,0,*61
1500239173.92,38728,16.94,74410.5,-0.21,-21.39,-20.99,0,*6E
1500239175.17,38729,16.94,74410.0,-0.23,-21.43,-21.03,0,*62
1500239176.42,38730,16.94,74408.8,-0.23,-21.43,-21.03,0,*6A
1500239177.64,38731,16.94,74408.5,-0.25,-21.39,-21.03,0,*60
1500239178.9,38732,16.94,74412.5,-0.25,-21.33,-21.03,0,*69
1500239180.13,38733,16.94,74410.8,-0.25,-21.33,-20.93,0,*60
1500239181.38,38734,16.88,74410.8,-0.23,-21.43,-21.03,0,*6E
1500239182.6,38735,16.94,74412.5,-0.25,-21.43,-21.03,0,*69
1500239183.83,38736,16.94,74408.0,-0.25,-21.43,-21.03,0,*6A
1500239185.06,38737,16.94,74408.5,-0.25,-21.43,-21.03,0,*6B
1500239186.3,38738,16.94,74412.5,-0.23,-21.43,-21.03,0,*62
1500239187.53,38739,16.94,74414.3,-0.25,-21.39,-21.03,0,*68
1500239188.75,38740,16.94,74410.8,-0.27,-21.43,-21.09,0,*63
1500239189.99,38741,16.94,74410.5,-0.27,-21.27,-21.09,0,*60
1500239191.24,38742,16.94,74408.8,-0.27,-21.13,-20.83,0,*67
1500239192.49,38743,16.94,74412.3,-0.27,-21.13,-20.83,0,*66
1500239193.74,38744,16.94,74412.3,-0.27,-21.13,-20.79,0,*64
1500239195.01,38745,16.94,74414.0,-0.27,-20.99,-20.79,0,*66
1500239196.24,38746,16.94,74414.5,-0.27,-20.93,-20.63,0,*64
1500239197.52,38747,16.88,74410.3,-0.27,-20.99,-20.83,0,*61
1500239198.77,38748,16.88,74408.3,-0.27,-21.23,-20.93,0,*6F
1500239200.03,38749,16.88,74412.0,-0.29,-21.23,-20.99,0,*6A
1500239201.3,38750,16.88,74410.5,-0.27,-20.99,-20.79,0,*62
1500239202.55,38751,16.88,74410.0,-0.27,-20.83,-20.63,0,*63
1500239203.81,38752,16.94,74414.5,-0.27,-20.69,-20.49,0,*6C
1500239205.04,38753,16.88,74412.3,-0.27,-20.63,-20.43,0,*6D
1500239206.27,38754,16.94,74412.5,-0.27,-20.63,-20.43,0,*6A
1500239207.49,38755,16.88,74408.8,-0.25,-20.59,-20.39,0,*6D
1500239208.72,38756,16.94,74412.8,-0.25,-20.73,-20.53,0,*6A
1500239209.92,38757,16.94,74408.3,-0.25,-20.73,-20.59,0,*61
1500239211.13,38758,16.94,74414.3,-0.25,-20.93,-20.63,0,*69
1500239212.36,38759,16.88,74408.0,-0.23,-20.93,-20.63,0,*6E
1500239213.59,38760,16.94,74408.3,-0.25,-20.89,-20.79,0,*62
1500239214.84,38761,16.94,74410.3,-0.25,-21.03,-20.79,0,*60
1500239216.07,38762,16.94,74412.0,-0.25,-21.03,-20.73,0,*69
1500239217.28,38763,16.94,74410.5,-0.25,-20.93,-20.89,0,*65
1500239218.49,38764,16.94,74412.0,-0.25,-20.93,-20.89,0,*62
1500239219.73,38765,16.94,74408.5,-0.23,-20.89,-20.89,0,*6E
1500239220.97,38766,16.88,74408.5,-0.25,-21.03,-20.89,0,*68
1500239222.2,38767,16.88,74410.3,-0.25,-21.03,-20.93,0,*62
1500239223.43,38768,16.94,74408.5,-0.25,-21.03,-20.93,0,*6D
1500239224.64,38769,16.94,74412.5,-0.25,-21.09,-20.93,0,*66
1500239225.84,38770,16.88,74410.0,-0.25,-21.17,-20.93,0,*61
1500239227.05,38771,16.94,74414.0,-0.25,-21.17,-20.93,0,*60
1500239228.28,38772,16.94,74412.3,-0.25,-21.17,-21.03,0,*6B
1500239229.51,38773,16.94,74412.5,-0.25,-21.09,-21.03,0,*65
1500239230.73,38774,16.94,74410.3,-0.25,-21.09,-21.03,0,*62
1500239231.98,38775,16.94,74412.5,-0.27,-21.09,-20.99,0,*63
1500239233.23,38776,16.94,74414.5,-0.27,-20.93,-20.99,0,*62
1500239234.48,38777,16.94,74414.5,-0.27,-21.09,-20.99,0,*61
1500239235.73,38778,16.94,74412.5,-0.27,-20.83,-20.93,0,*67
1500239236.96,38779,16.94,74414.5,-0.25,-20.89,-20.79,0,*6A
1500239238.21,38780,16.94,74412.8,-0.25,-20.79,-20.79,0,*63
1500239239.42,38781,16.88,74408.8,-0.25,-20.89,-20.93,0,*69
1500239240.67,38782,16.88,74410.0,-0.27,-20.93,-20.99,0,*69
1500239241.94,38783,16.94,74412.3,-0.27,-20.99,-20.99,0,*62
1500239243.15,38784,16.94,74412.5,-0.25,-20.93,-20.93,0,*67
1500239244.36,38785,16.94,74414.3,-0.25,-20.93,-20.89,0,*6D
1500239245.57,38786,16.88,74410.8,-0.25,-20.89,-20.93,0,*6E
1500239246.8,38787,16.94,74410.3,-0.25,-20.79,-20.89,0,*6B
1500239248.03,38788,16.88,74410.0,-0.25,-20.79,-20.93,0,*6F
1500239249.24,38789,16.88,74408.3,-0.25,-20.93,-20.93,0,*6A
1500239250.45,38790,16.88,74408.3,-0.25,-20.93,-20.93,0,*62
1500239251.67,38791,16.88,74408.3,-0.25,-20.93,-21.03,0,*6B
1500239252.92,38792,16.88,74410.5,-0.23,-20.93,-21.03,0,*6E
1500239254.17,38793,16.88,74408.5,-0.27,-20.99,-21.09,0,*6B
1500239255.39,38794,16.94,74414.8,-0.27,-21.09,-21.13,0,*6F
1500239256.62,38795,16.94,74412.8,-0.29,-21.13,-21.23,0,*68
1500239257.85,38796,16.94,74414.5,-0.25,-20.93,-21.03,0,*6C
1500239259.07,38797,16.94,74412.8,-0.23,-20.93,-21.09,0,*61
1500239260.3,38798,16.94,74412.0,-0.25,-21.09,-21.23,0,*62
1500239261.55,38799,16.88,74410.8,-0.25,-21.33,-21.33,0,*6B
1500239262.76,38800,16.88,74412.0,-0.25,-21.09,-21.17,0,*6B
1500239264.01,38801,16.94,74412.0,-0.27,-21.13,-21.23,0,*64
1500239265.23,38802,16.94,74412.8,-0.25,-21.09,-21.33,0,*6F
1500239266.49,38803,16.94,74414.0,-0.27,-21.09,-21.23,0,*6D
1500239267.71,38804,16.94,74414.3,-0.25,-21.17,-21.33,0,*66
1500239268.95,38805,16.94,74414.3,-0.25,-21.09,-21.23,0,*69
1500239270.18,38806,16.88,74410.8,-0.25,-21.09,-21.23,0,*6A
1500239271.41,38807,16.94,74410.5,-0.25,-21.09,-21.23,0,*6B
1500239272.66,38808,16.94,74412.8,-0.27,-20.99,-21.13,0,*6D
1500239273.88,38809,16.94,74414.5,-0.27,-21.09,-21.13,0,*64
1500239275.11,38810,16.88,74412.0,-0.29,-21.09,-21.23,0,*61
1500239276.32,38811,16.88,74408.5,-0.25,-20.93,-21.17,0,*69
1500239277.6,38812,16.94,74414.5,-0.27,-20.99,-21.23,0,*65
1500239278.85,38813,16.94,74414.3,-0.27,-21.09,-21.27,0,*68
1500239280.11,38814,16.88,74408.3,-0.29,-20.99,-21.23,0,*6D
1500239281.37,38815,16.94,74410.5,-0.25,-21.03,-21.23,0,*62
1500239282.61,38816,16.94,74414.0,-0.25,-21.09,-21.23,0,*6B
1500239283.83,38817,16.88,74408.3,-0.25,-21.23,-21.43,0,*64
1500239285.06,38818,16.94,74410.5,-0.27,-21.39,-21.47,0,*66
1500239286.31,38819,16.88,74408.8,-0.27,-21.27,-21.47,0,*68
1500239287.53,38820,16.94,74412.3,-0.27,-21.39,-21.47,0,*6D
1500239288.75,38821,16.88,74412.8,-0.27,-21.39,-21.63,0,*6A
1500239290.0,38822,16.94,74412.3,-0.27,-21.27,-21.47,0,*60
1500239291.22,38823,16.88,74410.8,-0.29,-21.27,-21.73,0,*68
1500239292.44,38824,16.94,74414.0,-0.27,-21.39,-21.73,0,*6E
1500239293.64,38825,16.94,74412.3,-0.29,-21.43,-21.77,0,*68
1500239294.84,38826,16.94,74414.8,-0.29,-21.43,-21.73,0,*6F